TimeCDT,TemperatureF,Dew PointF,Humidity,Sea Level PressureIn,VisibilityMPH,Wind Direction,Wind SpeedMPH,Gust SpeedMPH,PrecipitationIn,Events,Conditions,WindDirDegrees,DateUTC
12:15 AM,69.8,51.8,53,29.71,10.0,SSE,15.0,23.0,N/A,,Clear,160,2013-10-11 05:15:00
12:34 AM,69.8,50.0,49,29.71,10.0,SSE,17.3,24.2,N/A,,Clear,160,2013-10-11 05:34:00
12:55 AM,69.8,51.8,53,29.71,10.0,SSE,16.1,19.6,N/A,,Clear,160,2013-10-11 05:55:00
1:15 AM,69.8,51.8,53,29.71,10.0,SSE,15.0,20.7,N/A,,Clear,160,2013-10-11 06:15:00
1:35 AM,69.8,51.8,53,29.71,10.0,SSE,17.3,24.2,N/A,,Clear,150,2013-10-11 06:35:00
1:55 AM,69.8,51.8,53,29.71,10.0,SSE,19.6,23.0,N/A,,Scattered Clouds,160,2013-10-11 06:55:00
2:14 AM,69.8,51.8,53,29.71,10.0,SSE,17.3,24.2,N/A,,Scattered Clouds,160,2013-10-11 07:14:00
2:35 AM,69.8,51.8,53,29.71,10.0,South,16.1,24.2,N/A,,Scattered Clouds,170,2013-10-11 07:35:00
2:55 AM,69.8,51.8,53,29.71,10.0,SSE,16.1,23.0,N/A,,Clear,160,2013-10-11 07:55:00
3:14 AM,66.2,51.8,60,29.71,10.0,SSE,15.0,-,N/A,,Clear,160,2013-10-11 08:14:00
3:35 AM,66.2,51.8,60,29.72,10.0,SSE,16.1,21.9,N/A,,Scattered Clouds,160,2013-10-11 08:35:00
3:55 AM,62.6,55.4,77,29.71,10.0,SSE,15.0,20.7,N/A,Rain,Light Rain,150,2013-10-11 08:55:00
4:14 AM,62.6,55.4,77,29.70,10.0,SSE,11.5,-,N/A,,Light Drizzle,150,2013-10-11 09:14:00
4:35 AM,62.6,55.4,77,29.69,10.0,SE,13.8,-,N/A,,Scattered Clouds,140,2013-10-11 09:35:00
4:55 AM,64.4,55.4,73,29.68,10.0,SE,15.0,-,N/A,,Clear,140,2013-10-11 09:55:00
5:14 AM,64.4,55.4,73,29.68,10.0,SSE,12.7,-,N/A,,Clear,150,2013-10-11 10:14:00
5:35 AM,64.4,53.6,68,29.66,10.0,SSE,12.7,19.6,N/A,,Clear,150,2013-10-11 10:35:00
5:55 AM,64.4,53.6,68,29.66,10.0,SSE,16.1,-,N/A,,Clear,150,2013-10-11 10:55:00
6:14 AM,62.6,53.6,72,29.66,10.0,SSE,16.1,21.9,N/A,,Clear,150,2013-10-11 11:14:00
6:35 AM,62.6,53.6,72,29.65,10.0,SE,18.4,21.9,N/A,,Clear,140,2013-10-11 11:35:00
6:55 AM,62.6,53.6,72,29.64,10.0,SE,16.1,20.7,N/A,,Clear,140,2013-10-11 11:55:00
7:14 AM,62.6,53.6,72,29.64,10.0,SE,15.0,21.9,N/A,,Clear,140,2013-10-11 12:14:00
7:35 AM,60.8,53.6,77,29.64,10.0,SE,15.0,23.0,N/A,,Clear,140,2013-10-11 12:35:00
7:55 AM,60.8,53.6,77,29.63,10.0,SE,13.8,-,N/A,,Clear,130,2013-10-11 12:55:00
8:14 AM,60.8,53.6,77,29.62,10.0,SE,12.7,18.4,N/A,,Clear,130,2013-10-11 13:14:00
8:35 AM,60.8,53.6,77,29.61,10.0,SE,12.7,21.9,N/A,,Clear,130,2013-10-11 13:35:00
8:55 AM,60.8,55.4,82,29.61,10.0,SE,15.0,23.0,N/A,,Clear,140,2013-10-11 13:55:00
9:14 AM,60.8,55.4,82,29.61,10.0,SE,17.3,24.2,N/A,,Clear,140,2013-10-11 14:14:00
9:35 AM,62.6,55.4,77,29.60,10.0,SE,20.7,25.3,N/A,,Clear,140,2013-10-11 14:35:00
9:55 AM,62.6,55.4,77,29.59,10.0,SE,18.4,26.5,N/A,,Clear,140,2013-10-11 14:55:00
10:14 AM,64.4,55.4,73,29.59,10.0,SE,23.0,29.9,N/A,,Clear,140,2013-10-11 15:14:00
10:35 AM,64.4,55.4,73,29.58,10.0,SSE,18.4,28.8,N/A,,Clear,150,2013-10-11 15:35:00
10:55 AM,66.2,55.4,68,29.58,10.0,SSE,19.6,29.9,N/A,,Clear,150,2013-10-11 15:55:00
11:14 AM,66.2,57.2,73,29.56,10.0,SSE,18.4,29.9,N/A,,Clear,150,2013-10-11 16:14:00
11:35 AM,66.2,57.2,73,29.53,10.0,SE,17.3,28.8,N/A,,Clear,130,2013-10-11 16:35:00
11:55 AM,66.2,57.2,73,29.55,10.0,SSE,21.9,27.6,N/A,Thunderstorm,Scattered Clouds,150,2013-10-11 16:55:00
12:15 PM,64.4,57.2,77,29.56,7.0,SSE,13.8,25.3,0.01,Rain-Thunderstorm,Heavy Thunderstorms and Rain,150,2013-10-11 17:15:00
12:35 PM,62.6,60.8,94,29.55,10.0,SSE,11.5,18.4,0.06,Rain-Thunderstorm,Light Thunderstorms and Rain,160,2013-10-11 17:35:00
12:54 PM,60.8,60.8,100,29.53,4.0,SE,17.3,27.6,0.25,Rain-Thunderstorm,Heavy Thunderstorms and Rain,130,2013-10-11 17:54:00
1:15 PM,62.6,60.8,94,29.51,10.0,SSE,12.7,-,0.01,,Mostly Cloudy,150,2013-10-11 18:15:00
1:35 PM,62.6,60.8,94,29.51,10.0,SE,13.8,17.3,0.01,,Mostly Cloudy,140,2013-10-11 18:35:00
1:54 PM,62.6,60.8,94,29.49,10.0,SE,15.0,23.0,0.01,,Overcast,140,2013-10-11 18:54:00
2:15 PM,64.4,62.6,94,29.46,10.0,SE,18.4,27.6,N/A,,Scattered Clouds,140,2013-10-11 19:15:00
2:35 PM,66.2,60.8,83,29.45,10.0,SE,23.0,33.4,N/A,,Mostly Cloudy,140,2013-10-11 19:35:00
2:54 PM,64.4,60.8,88,29.46,10.0,SSE,23.0,31.1,N/A,,Overcast,150,2013-10-11 19:54:00
3:15 PM,64.4,60.8,88,29.46,10.0,SSE,20.7,34.5,N/A,,Overcast,150,2013-10-11 20:15:00
3:35 PM,66.2,62.6,88,29.46,7.0,SSE,23.0,29.9,N/A,Rain,Light Rain,150,2013-10-11 20:35:00
3:54 PM,64.4,62.6,94,29.45,10.0,SSE,17.3,27.6,0.01,Rain,Light Rain,150,2013-10-11 20:54:00
4:15 PM,64.4,62.6,94,29.43,10.0,SE,21.9,32.2,N/A,,Scattered Clouds,140,2013-10-11 21:15:00
4:35 PM,64.4,60.8,88,29.40,10.0,SE,20.7,33.4,N/A,,Mostly Cloudy,140,2013-10-11 21:35:00
4:54 PM,64.4,60.8,88,29.40,10.0,SE,19.6,27.6,N/A,,Overcast,140,2013-10-11 21:54:00
5:15 PM,64.4,60.8,88,29.39,10.0,SE,18.4,29.9,N/A,Rain,Heavy Rain,140,2013-10-11 22:15:00
5:35 PM,64.4,60.8,88,29.38,10.0,SE,20.7,28.8,N/A,,Overcast,140,2013-10-11 22:35:00
5:54 PM,64.4,60.8,88,29.38,4.0,SSE,25.3,33.4,0.01,Rain,Heavy Rain,150,2013-10-11 22:54:00
6:15 PM,62.6,62.6,100,29.37,10.0,SSE,24.2,34.5,0.03,Rain,Light Rain,150,2013-10-11 23:15:00
6:35 PM,62.6,60.8,94,29.36,10.0,SSE,20.7,28.8,0.03,,Scattered Clouds,160,2013-10-11 23:35:00
6:54 PM,62.6,60.8,94,29.36,10.0,SSE,15.0,23.0,0.03,,Scattered Clouds,160,2013-10-11 23:54:00
6:59 PM,62.6,60.8,94,29.37,10.0,SSE,16.1,21.9,N/A,,Scattered Clouds,160,2013-10-11 23:59:00
7:35 PM,64.4,60.8,88,29.37,10.0,South,13.8,39.1,N/A,,Scattered Clouds,180,2013-10-12 00:35:00
7:54 PM,62.6,53.6,72,29.38,10.0,South,18.4,24.2,N/A,,Clear,180,2013-10-12 00:54:00
8:15 PM,60.8,53.6,77,29.38,10.0,South,12.7,23.0,N/A,,Clear,180,2013-10-12 01:15:00
8:35 PM,60.8,53.6,77,29.38,10.0,South,13.8,21.9,N/A,,Clear,190,2013-10-12 01:35:00
8:54 PM,59.0,53.6,82,29.39,10.0,SSW,21.9,28.8,N/A,,Clear,210,2013-10-12 01:54:00
9:15 PM,57.2,53.6,88,29.40,10.0,SSW,25.3,29.9,N/A,,Clear,210,2013-10-12 02:15:00
9:35 PM,55.4,51.8,88,29.42,10.0,SSW,21.9,33.4,N/A,,Clear,200,2013-10-12 02:35:00
9:54 PM,53.6,51.8,94,29.42,10.0,SSW,24.2,34.5,N/A,,Clear,210,2013-10-12 02:54:00
10:15 PM,53.6,51.8,94,29.44,10.0,SSW,23.0,33.4,N/A,,Scattered Clouds,210,2013-10-12 03:15:00
10:35 PM,53.6,51.8,94,29.44,10.0,SSW,21.9,31.1,N/A,,Scattered Clouds,210,2013-10-12 03:35:00
10:54 PM,53.6,50.0,88,29.45,10.0,SSW,20.7,29.9,N/A,,Scattered Clouds,210,2013-10-12 03:54:00
11:15 PM,53.6,50.0,88,29.46,10.0,SSW,19.6,25.3,N/A,,Overcast,200,2013-10-12 04:15:00
11:35 PM,53.6,51.8,94,29.46,10.0,SSW,20.7,26.5,N/A,,Overcast,210,2013-10-12 04:35:00
11:54 PM,53.6,51.8,94,29.46,10.0,SSW,15.0,25.3,N/A,,Overcast,200,2013-10-12 04:54:00